Time,TemperatureF,DewpointF,PressureIn,WindDirection,WindDirectionDegrees,WindSpeedMPH,WindSpeedGustMPH,Humidity,HourlyPrecipIn,Conditions,Clouds,dailyrainin,SolarRadiationWatts/m^2,SoftwareType,DateUTC
2013-01-07 00:02:00,26.0,26.0,-100.00,North,2,11.0,17.0,98,0.00,,,0.00,2.000000,,2013-01-07 08:02:00,
2013-01-07 00:11:00,26.0,26.0,-100.00,North,2,11.0,17.0,98,0.00,,,0.00,2.000000,,2013-01-07 08:11:00,
2013-01-07 00:43:00,26.0,25.0,-100.00,North,2,8.0,17.0,97,0.00,,,0.00,2.000000,,2013-01-07 08:43:00,
2013-01-07 00:53:00,26.0,25.0,-100.00,North,2,8.0,17.0,97,0.00,,,0.00,2.000000,,2013-01-07 08:53:00,
2013-01-07 01:02:00,26.0,25.0,-100.00,North,2,8.0,17.0,97,0.00,,,0.00,2.000000,,2013-01-07 09:02:00,
2013-01-07 01:12:00,26.0,25.0,-100.00,North,2,8.0,17.0,97,0.00,,,0.00,2.000000,,2013-01-07 09:12:00,
2013-01-07 01:32:00,24.0,23.0,-100.00,North,2,10.0,16.0,97,0.00,,,0.00,3.000000,,2013-01-07 09:32:00,
2013-01-07 01:42:00,24.0,23.0,-100.00,North,2,10.0,16.0,97,0.00,,,0.00,3.000000,,2013-01-07 09:42:00,
2013-01-07 01:52:00,24.0,23.0,-100.00,North,2,10.0,16.0,97,0.00,,,0.00,3.000000,,2013-01-07 09:52:00,
2013-01-07 02:02:00,24.0,23.0,-100.00,North,2,10.0,16.0,97,0.00,,,0.00,3.000000,,2013-01-07 10:02:00,
2013-01-07 02:12:00,24.0,23.0,-100.00,North,2,10.0,16.0,97,0.00,,,0.00,3.000000,,2013-01-07 10:12:00,
2013-01-07 02:33:00,24.0,23.0,-100.00,North,2,9.0,17.0,96,0.00,,,0.00,2.000000,,2013-01-07 10:33:00,
2013-01-07 02:42:00,24.0,23.0,-100.00,North,2,9.0,17.0,96,0.00,,,0.00,2.000000,,2013-01-07 10:42:00,
2013-01-07 02:52:00,24.0,23.0,-100.00,North,2,9.0,17.0,96,0.00,,,0.00,2.000000,,2013-01-07 10:52:00,
2013-01-07 03:02:00,24.0,23.0,-100.00,North,2,9.0,17.0,96,0.00,,,0.00,2.000000,,2013-01-07 11:02:00,
2013-01-07 03:12:00,24.0,23.0,-100.00,North,2,9.0,17.0,96,0.00,,,0.00,2.000000,,2013-01-07 11:12:00,
2013-01-07 03:43:00,24.0,23.0,-100.00,North,2,12.0,20.0,96,0.00,,,0.00,2.000000,,2013-01-07 11:43:00,
2013-01-07 03:53:00,24.0,23.0,-100.00,North,2,12.0,20.0,96,0.00,,,0.00,2.000000,,2013-01-07 11:53:00,
2013-01-07 04:02:00,24.0,23.0,-100.00,North,2,12.0,20.0,96,0.00,,,0.00,2.000000,,2013-01-07 12:02:00,
2013-01-07 04:12:00,24.0,23.0,-100.00,North,2,12.0,20.0,96,0.00,,,0.00,2.000000,,2013-01-07 12:12:00,
2013-01-07 04:43:00,24.0,23.0,-100.00,North,2,11.0,19.0,96,0.00,,,0.00,2.000000,,2013-01-07 12:43:00,
2013-01-07 04:53:00,24.0,23.0,-100.00,North,2,11.0,19.0,96,0.00,,,0.00,2.000000,,2013-01-07 12:53:00,
2013-01-07 05:02:00,24.0,23.0,-100.00,North,2,11.0,19.0,96,0.00,,,0.00,2.000000,,2013-01-07 13:02:00,
2013-01-07 05:12:00,24.0,23.0,-100.00,North,2,11.0,19.0,96,0.00,,,0.00,2.000000,,2013-01-07 13:12:00,
2013-01-07 05:43:00,22.0,21.0,-100.00,North,3,10.0,16.0,95,0.00,,,0.00,3.000000,,2013-01-07 13:43:00,
2013-01-07 05:53:00,22.0,21.0,-100.00,North,3,10.0,16.0,95,0.00,,,0.00,3.000000,,2013-01-07 13:53:00,
2013-01-07 06:03:00,22.0,21.0,-100.00,North,3,10.0,16.0,95,0.00,,,0.00,3.000000,,2013-01-07 14:03:00,
2013-01-07 06:12:00,22.0,21.0,-100.00,North,3,10.0,16.0,95,0.00,,,0.00,3.000000,,2013-01-07 14:12:00,
2013-01-07 06:33:00,21.0,20.0,-100.00,North,3,10.0,15.0,94,0.00,,,0.00,2.000000,,2013-01-07 14:33:00,
2013-01-07 06:43:00,21.0,20.0,-100.00,North,3,10.0,15.0,94,0.00,,,0.00,2.000000,,2013-01-07 14:43:00,
2013-01-07 06:53:00,21.0,20.0,-100.00,North,3,10.0,15.0,94,0.00,,,0.00,2.000000,,2013-01-07 14:53:00,
2013-01-07 07:03:00,21.0,20.0,-100.00,North,3,10.0,15.0,94,0.00,,,0.00,2.000000,,2013-01-07 15:03:00,
2013-01-07 07:12:00,21.0,20.0,-100.00,North,3,10.0,15.0,94,0.00,,,0.00,2.000000,,2013-01-07 15:12:00,
2013-01-07 07:33:00,21.0,20.0,-100.00,North,3,10.0,18.0,94,0.00,,,0.00,6.000000,,2013-01-07 15:33:00,
2013-01-07 07:43:00,21.0,20.0,-100.00,North,3,10.0,18.0,94,0.00,,,0.00,6.000000,,2013-01-07 15:43:00,
2013-01-07 07:53:00,21.0,20.0,-100.00,North,3,10.0,18.0,94,0.00,,,0.00,6.000000,,2013-01-07 15:53:00,
2013-01-07 08:02:00,21.0,20.0,-100.00,North,3,10.0,18.0,94,0.00,,,0.00,6.000000,,2013-01-07 16:02:00,
2013-01-07 08:12:00,21.0,20.0,-100.00,North,3,10.0,18.0,94,0.00,,,0.00,6.000000,,2013-01-07 16:12:00,
2013-01-07 08:43:00,23.0,22.0,-100.00,North,3,9.0,15.0,94,0.00,,,0.00,108.000000,,2013-01-07 16:43:00,
2013-01-07 08:53:00,23.0,22.0,-100.00,North,3,9.0,15.0,94,0.00,,,0.00,108.000000,,2013-01-07 16:53:00,
2013-01-07 09:02:00,23.0,22.0,-100.00,North,3,9.0,15.0,94,0.00,,,0.00,108.000000,,2013-01-07 17:02:00,
2013-01-07 09:12:00,23.0,22.0,-100.00,North,3,9.0,15.0,94,0.00,,,0.00,108.000000,,2013-01-07 17:12:00,
2013-01-07 09:42:00,24.0,23.0,-100.00,North,3,8.0,14.0,94,0.00,,,0.00,288.000000,,2013-01-07 17:42:00,
2013-01-07 09:53:00,24.0,23.0,-100.00,North,3,8.0,14.0,94,0.00,,,0.00,288.000000,,2013-01-07 17:53:00,
2013-01-07 10:02:00,24.0,23.0,-100.00,North,3,8.0,14.0,94,0.00,,,0.00,288.000000,,2013-01-07 18:02:00,
2013-01-07 10:12:00,24.0,23.0,-100.00,North,3,8.0,14.0,94,0.00,,,0.00,288.000000,,2013-01-07 18:12:00,
2013-01-07 10:43:00,26.0,24.0,-100.00,North,2,7.0,12.0,93,0.00,,,0.00,495.000000,,2013-01-07 18:43:00,
2013-01-07 10:53:00,26.0,24.0,-100.00,North,2,7.0,12.0,93,0.00,,,0.00,495.000000,,2013-01-07 18:53:00,
2013-01-07 11:03:00,26.0,24.0,-100.00,North,2,7.0,12.0,93,0.00,,,0.00,495.000000,,2013-01-07 19:03:00,
2013-01-07 11:12:00,26.0,24.0,-100.00,North,2,7.0,12.0,93,0.00,,,0.00,495.000000,,2013-01-07 19:12:00,
2013-01-07 11:43:00,27.0,25.0,-100.00,North,3,9.0,14.0,93,0.00,,,0.00,676.000000,,2013-01-07 19:43:00,
2013-01-07 11:53:00,27.0,25.0,-100.00,North,3,9.0,14.0,93,0.00,,,0.00,676.000000,,2013-01-07 19:53:00,
2013-01-07 12:02:00,27.0,25.0,-100.00,North,3,9.0,14.0,93,0.00,,,0.00,676.000000,,2013-01-07 20:02:00,
2013-01-07 12:12:00,27.0,25.0,-100.00,North,3,9.0,14.0,93,0.00,,,0.00,676.000000,,2013-01-07 20:12:00,
2013-01-07 12:43:00,29.0,27.0,-100.00,North,3,14.0,22.0,92,0.00,,,0.00,733.000000,,2013-01-07 20:43:00,
2013-01-07 12:53:00,29.0,27.0,-100.00,North,3,14.0,22.0,92,0.00,,,0.00,733.000000,,2013-01-07 20:53:00,
2013-01-07 13:02:00,29.0,27.0,-100.00,North,3,14.0,22.0,92,0.00,,,0.00,733.000000,,2013-01-07 21:02:00,
2013-01-07 13:12:00,29.0,27.0,-100.00,North,3,14.0,22.0,92,0.00,,,0.00,733.000000,,2013-01-07 21:12:00,
2013-01-07 13:33:00,31.0,28.0,-100.00,North,2,18.0,27.0,88,0.08,,,0.08,719.000000,,2013-01-07 21:33:00,
2013-01-07 13:43:00,31.0,28.0,-100.00,North,2,18.0,27.0,88,0.08,,,0.08,719.000000,,2013-01-07 21:43:00,
2013-01-07 13:53:00,31.0,28.0,-100.00,North,2,18.0,27.0,88,0.08,,,0.08,719.000000,,2013-01-07 21:53:00,
2013-01-07 14:02:00,31.0,28.0,-100.00,North,2,18.0,27.0,88,0.08,,,0.08,719.000000,,2013-01-07 22:02:00,
2013-01-07 14:12:00,31.0,28.0,-100.00,North,2,18.0,27.0,88,0.08,,,0.08,719.000000,,2013-01-07 22:12:00,
2013-01-07 14:43:00,32.0,24.0,-100.00,North,2,18.0,27.0,73,0.08,,,0.16,628.000000,,2013-01-07 22:43:00,
2013-01-07 14:53:00,32.0,24.0,-100.00,North,2,18.0,27.0,73,0.08,,,0.16,628.000000,,2013-01-07 22:53:00,
2013-01-07 15:02:00,32.0,24.0,-100.00,North,2,18.0,27.0,73,0.08,,,0.16,628.000000,,2013-01-07 23:02:00,
2013-01-07 15:12:00,32.0,24.0,-100.00,North,2,18.0,27.0,73,0.08,,,0.16,628.000000,,2013-01-07 23:12:00,
2013-01-07 15:33:00,32.0,20.0,-100.00,North,2,18.0,27.0,60,0.04,,,0.20,473.000000,,2013-01-07 23:33:00,
2013-01-07 15:43:00,32.0,20.0,-100.00,North,2,18.0,27.0,60,0.04,,,0.20,473.000000,,2013-01-07 23:43:00,
2013-01-07 15:53:00,32.0,20.0,-100.00,North,2,18.0,27.0,60,0.04,,,0.20,473.000000,,2013-01-07 23:53:00,
2013-01-07 16:02:00,32.0,20.0,-100.00,North,2,18.0,27.0,60,0.04,,,0.20,473.000000,,2013-01-08 00:02:00,
2013-01-07 16:12:00,32.0,20.0,-100.00,North,2,18.0,27.0,60,0.04,,,0.20,473.000000,,2013-01-08 00:12:00,
2013-01-07 16:43:00,31.0,18.0,-100.00,North,2,19.0,28.0,58,0.02,,,0.22,296.000000,,2013-01-08 00:43:00,
2013-01-07 16:52:00,31.0,18.0,-100.00,North,2,19.0,28.0,58,0.02,,,0.22,296.000000,,2013-01-08 00:52:00,
2013-01-07 17:02:00,31.0,18.0,-100.00,North,2,19.0,28.0,58,0.02,,,0.22,296.000000,,2013-01-08 01:02:00,
2013-01-07 17:12:00,31.0,18.0,-100.00,North,2,19.0,28.0,58,0.02,,,0.22,296.000000,,2013-01-08 01:12:00,
2013-01-07 17:42:00,29.0,15.0,-100.00,North,2,20.0,31.0,56,0.00,,,0.22,24.000000,,2013-01-08 01:42:00,
2013-01-07 17:52:00,29.0,15.0,-100.00,North,2,20.0,31.0,56,0.00,,,0.22,24.000000,,2013-01-08 01:52:00,
2013-01-07 18:02:00,29.0,15.0,-100.00,North,2,20.0,31.0,56,0.00,,,0.22,24.000000,,2013-01-08 02:02:00,
2013-01-07 18:12:00,29.0,15.0,-100.00,North,2,20.0,31.0,56,0.00,,,0.22,24.000000,,2013-01-08 02:12:00,
2013-01-07 18:43:00,30.0,13.0,-100.00,North,2,18.0,31.0,49,0.00,,,0.22,2.000000,,2013-01-08 02:43:00,
2013-01-07 18:53:00,30.0,13.0,-100.00,North,2,18.0,31.0,49,0.00,,,0.22,2.000000,,2013-01-08 02:53:00,
2013-01-07 19:03:00,30.0,13.0,-100.00,North,2,18.0,31.0,49,0.00,,,0.22,2.000000,,2013-01-08 03:03:00,
2013-01-07 19:12:00,30.0,13.0,-100.00,North,2,18.0,31.0,49,0.00,,,0.22,2.000000,,2013-01-08 03:12:00,
2013-01-07 19:33:00,33.0,10.0,-100.00,North,2,18.0,27.0,38,0.00,,,0.22,2.000000,,2013-01-08 03:33:00,
2013-01-07 19:43:00,33.0,10.0,-100.00,North,2,18.0,27.0,38,0.00,,,0.22,2.000000,,2013-01-08 03:43:00,
2013-01-07 19:53:00,33.0,10.0,-100.00,North,2,18.0,27.0,38,0.00,,,0.22,2.000000,,2013-01-08 03:53:00,
2013-01-07 20:02:00,33.0,10.0,-100.00,North,2,18.0,27.0,38,0.00,,,0.22,2.000000,,2013-01-08 04:02:00,
2013-01-07 20:12:00,33.0,10.0,-100.00,North,2,18.0,27.0,38,0.00,,,0.22,2.000000,,2013-01-08 04:12:00,
2013-01-07 20:32:00,35.0,7.0,-100.00,North,2,22.0,28.0,30,0.00,,,0.22,2.000000,,2013-01-08 04:32:00,
2013-01-07 20:43:00,35.0,7.0,-100.00,North,2,22.0,28.0,30,0.00,,,0.22,2.000000,,2013-01-08 04:43:00,
2013-01-07 20:52:00,35.0,7.0,-100.00,North,2,22.0,28.0,30,0.00,,,0.22,2.000000,,2013-01-08 04:52:00,
2013-01-07 21:03:00,35.0,7.0,-100.00,North,2,22.0,28.0,30,0.00,,,0.22,2.000000,,2013-01-08 05:03:00,
2013-01-07 21:12:00,35.0,7.0,-100.00,North,2,22.0,28.0,30,0.00,,,0.22,2.000000,,2013-01-08 05:12:00,
2013-01-07 21:33:00,37.0,5.0,-100.00,North,2,20.0,31.0,26,0.00,,,0.22,2.000000,,2013-01-08 05:33:00,
2013-01-07 21:43:00,37.0,5.0,-100.00,North,2,20.0,31.0,26,0.00,,,0.22,2.000000,,2013-01-08 05:43:00,
2013-01-07 21:53:00,37.0,5.0,-100.00,North,2,20.0,31.0,26,0.00,,,0.22,2.000000,,2013-01-08 05:53:00,
2013-01-07 22:02:00,37.0,5.0,-100.00,North,2,20.0,31.0,26,0.00,,,0.22,2.000000,,2013-01-08 06:02:00,
2013-01-07 22:12:00,37.0,5.0,-100.00,North,2,20.0,31.0,26,0.00,,,0.22,2.000000,,2013-01-08 06:12:00,
2013-01-07 22:33:00,37.0,7.0,-100.00,North,2,23.0,31.0,28,0.00,,,0.22,2.000000,,2013-01-08 06:33:00,
2013-01-07 22:43:00,37.0,7.0,-100.00,North,2,23.0,31.0,28,0.00,,,0.22,2.000000,,2013-01-08 06:43:00,
2013-01-07 22:52:00,37.0,7.0,-100.00,North,2,23.0,31.0,28,0.00,,,0.22,2.000000,,2013-01-08 06:52:00,
2013-01-07 23:02:00,37.0,7.0,-100.00,North,2,23.0,31.0,28,0.00,,,0.22,2.000000,,2013-01-08 07:02:00,
2013-01-07 23:11:00,37.0,7.0,-100.00,North,2,23.0,31.0,28,0.00,,,0.22,2.000000,,2013-01-08 07:11:00,
2013-01-07 23:42:00,36.0,8.0,-100.00,North,2,18.0,29.0,30,0.00,,,0.22,2.000000,,2013-01-08 07:42:00,
2013-01-07 23:52:00,36.0,8.0,-100.00,North,2,18.0,29.0,30,0.00,,,0.22,2.000000,,2013-01-08 07:52:00,